Lapse_Rate
1.3 2.4 3.4 3.3 2.5 3.2 3.3 2.9 3.0 2.9 2.5 2.1 2.5 2.9 2.7 3.1 3.7 3.9 3.6 3.7 4.1 3.8 4.1 3.9 4.1 4.1 3.6 3.6 3.5 3.4 3.6 3.2 4.0 4.1 3.3 2.5 2.3 2.0 3.2 1.8 1.0 0.4 0.4
2.1 1.9 2.4 2.8 3.4 3.2 3.3 3.2 2.5 3.1 2.5 2.0 2.0 2.2 2.1 2.6 3.4 3.6 3.8 4.4 3.8 3.8 3.9 4.1 4.1 5.3 4.3 3.8 3.3 3.7 3.5 3.1 2.6 3.8 3.1 3.5 2.7 3.3 2.6 1.7 1.2 0.6 0.4
0.1 1.5 1.7 2.4 2.6 3.7 3.6 4.0 2.5 3.3 3.1 2.7 1.5 1.5 1.8 2.3 3.2 3.5 3.6 3.8 3.7 3.9 3.5 3.9 4.3 4.1 4.1 3.6 3.8 3.3 3.5 3.7 2.9 2.5 3.4 3.0 3.5 3.3 2.8 1.8 0.6 0.4 0.4
2.2 1.2 1.9 1.8 2.0 2.8 4.8 3.5 4.0 3.6 3.5 2.5 2.3 2.0 2.0 2.6 3.2 3.5 3.9 3.5 3.6 3.8 3.9 4.0 3.8 3.2 4.0 3.9 3.7 3.2 3.2 2.9 3.0 2.9 2.8 3.3 3.8 3.4 3.0 1.9 1.3 0.6 0.6
1.8 2.6 2.5 3.1 1.6 2.1 3.1 4.1 4.3 3.5 3.9 3.7 3.6 3.1 3.4 3.8 4.6 3.5 3.7 3.7 3.8 4.0 4.0 4.1 4.3 2.5 2.3 3.5 3.2 3.1 3.0 2.9 2.8 2.9 3.1 3.2 3.4 3.4 3.5 3.7 2.9 1.6 0.7
2.8 3.7 3.1 2.0 1.7 1.2 2.1 2.5 2.9 3.0 3.4 3.4 3.8 4.3 3.9 5.1 4.3 3.1 3.7 3.5 3.6 3.9 3.9 4.1 3.2 2.5 2.1 1.6 2.1 1.3 2.1 2.7 2.9 2.5 2.5 2.8 3.1 3.0 3.2 3.9 2.9 2.4 2.8
3.6 3.4 3.2 1.9 1.9 1.8 2.1 2.4 1.7 2.7 3.3 3.5 3.9 4.6 4.4 4.2 2.6 2.3 2.8 4.1 4.2 4.1 3.8 3.7 3.3 3.2 1.5 0.9 0.4 0.4 -0.1 0.6 2.2 2.2 2.9 2.8 2.4 2.4 3.1 3.8 3.8 4.5 3.4
3.7 3.3 2.5 2.0 2.2 2.9 2.2 1.8 1.9 2.7 2.9 3.1 3.2 3.8 4.3 4.1 2.1 1.9 2.6 3.8 3.8 4.2 3.9 3.8 3.5 2.6 1.1 0.6 0.7 0.5 -0.1 -0.3 0.1 1.9 2.1 2.0 2.2 1.9 3.1 3.7 2.8 2.0 2.7
4.8 4.1 3.6 3.3 3.4 3.2 3.2 2.5 1.8 3.0 3.0 3.1 3.3 3.9 3.9 3.8 0.5 0.9 1.2 2.3 3.5 3.9 3.7 3.5 3.7 3.1 0.6 0.2 1.0 0.3 -0.2 -0.3 -0.7 0.8 1.2 1.1 1.2 1.8 3.0 3.3 2.7 2.8 3.1
5.1 4.5 3.7 4.1 4.1 3.9 3.2 3.4 3.4 3.0 3.1 3.1 3.0 3.3 2.7 3.4 0.7 -0.8 -0.2 2.8 2.9 2.6 2.3 2.1 1.2 3.2 -0.5 -0.2 1.4 0.6 0.6 0.4 1.3 2.4 1.8 1.9 2.5 2.6 4.0 4.2 4.1 3.6 2.8
4.3 3.7 3.1 2.9 3.0 2.7 2.7 2.5 2.5 3.1 3.9 3.5 3.2 2.6 2.3 1.2 1.3 -1.1 -1.2 1.5 3.0 2.9 1.9 0.8 0.7 -0.5 -1.0 -1.1 0.6 1.9 1.3 1.3 1.9 1.9 2.0 2.4 3.0 3.2 3.0 3.6 3.5 4.1 3.1
3.9 3.2 2.8 3.1 2.7 2.3 1.3 1.3 1.3 1.7 2.3 3.1 3.0 2.3 1.1 0.9 -0.9 -0.4 -1.5 -1.5 0.8 2.3 2.4 1.1 0.6 -0.6 -1.0 -1.0 0.3 0.3 -0.1 2.1 2.8 3.0 3.6 3.7 3.9 3.4 2.9 3.0 3.3 3.4 4.2
4.8 4.0 3.6 2.9 2.0 0.9 0.7 1.0 1.2 1.2 1.7 2.1 2.8 2.9 1.9 1.1 0.9 -0.5 -0.3 -1.0 -1.8 -0.2 1.7 1.0 -0.5 -1.6 -1.6 -0.7 -0.0 -0.2 1.0 3.3 3.9 4.3 4.0 4.1 4.2 4.1 3.8 3.7 3.8 3.6 3.1
5.5 4.8 3.7 1.8 -0.3 -0.8 -0.4 -0.2 0.1 0.7 1.5 1.6 2.3 2.8 2.0 1.6 1.2 1.3 1.1 0.9 0.3 0.2 -0.2 -0.7 -0.3 0.2 1.2 0.8 0.5 1.8 2.9 3.5 4.4 4.7 5.0 4.4 3.9 4.2 4.3 4.2 4.0 3.2 2.7
3.3 4.6 3.3 0.7 -0.1 -1.9 -3.4 -3.8 -1.9 -2.4 -2.7 1.0 1.2 0.9 1.1 1.8 1.2 -0.7 0.9 1.3 1.3 0.5 0.8 1.1 1.2 1.4 1.5 2.2 2.2 2.2 2.2 3.4 4.0 4.6 5.2 4.5 4.5 4.5 3.3 1.9 2.8 2.9 3.3
2.5 3.7 3.8 1.4 0.5 0.4 -0.7 -1.6 -4.5 -5.1 -5.2 -5.1 -4.1 -0.9 -1.4 -3.0 -3.7 -3.5 -3.1 -2.1 -1.2 0.2 1.9 2.0 2.6 3.1 3.7 3.9 3.8 3.4 3.4 3.6 3.6 3.8 4.0 3.9 3.2 2.9 2.7 1.9 1.7 2.9 3.3
2.0 2.8 4.2 3.7 2.6 2.2 1.5 0.8 0.6 -1.1 -3.8 -4.7 -4.7 -4.2 -3.8 -2.9 -3.7 -3.5 -2.6 -1.8 -0.6 2.9 3.7 3.6 3.7 3.6 3.5 3.5 3.4 3.3 3.5 3.2 2.7 3.0 3.3 3.1 2.7 2.1 2.5 2.6 2.3 2.8 2.9
1.8 1.9 4.5 3.9 3.7 3.2 3.0 2.5 1.8 2.2 2.4 1.2 -1.7 -3.6 -4.1 -3.4 -3.0 -3.4 -2.0 1.8 2.8 2.5 2.6 2.9 3.0 2.9 3.0 2.9 2.7 2.5 2.9 3.5 3.7 3.3 3.2 2.8 2.3 2.3 2.3 2.3 2.4 2.7 2.8
2.1 2.9 3.3 3.4 3.0 3.3 3.6 3.3 3.2 2.7 1.8 1.0 0.1 -0.5 -3.1 -3.9 -3.1 -1.5 -0.1 1.8 2.4 2.5 3.1 3.3 3.2 2.7 2.7 2.8 3.1 3.7 4.1 4.0 3.8 3.4 3.0 2.9 2.5 2.7 2.6 2.4 2.7 3.2 3.0
2.5 3.1 3.4 3.5 3.5 3.3 3.6 3.8 3.3 3.0 2.5 1.9 1.4 1.1 0.1 0.2 2.1 2.3 2.3 2.8 3.1 3.7 3.8 4.1 4.2 4.2 4.0 3.9 3.8 3.9 3.8 3.5 3.3 3.4 3.1 2.9 2.8 3.1 3.1 3.2 3.2 3.6 3.3
2.4 2.7 3.4 3.6 4.3 4.5 4.3 4.1 3.9 3.7 3.5 3.0 2.9 2.3 1.4 2.0 3.0 2.9 2.8 2.7 3.5 3.9 4.0 3.7 4.1 3.7 3.9 3.5 3.4 3.5 3.8 3.8 3.7 3.6 3.2 3.1 3.1 3.7 3.4 3.3 3.3 3.4 3.1
2.2 2.4 2.3 2.3 2.6 4.4 4.8 4.9 4.8 4.4 4.3 3.6 2.7 2.2 -0.5 1.6 2.8 3.2 3.3 3.5 3.5 2.9 2.9 3.1 2.8 2.6 2.9 3.3 3.1 3.6 4.0 3.8 3.7 3.7 3.5 3.6 3.4 3.5 2.8 3.1 3.0 2.6 2.7
2.5 2.4 2.3 2.1 1.8 1.8 2.2 2.4 2.5 2.6 2.5 2.3 2.3 1.8 0.8 1.3 1.5 1.8 2.7 3.5 3.3 3.3 2.7 2.7 3.4 3.4 3.2 3.8 4.4 4.4 4.0 3.4 3.3 3.2 3.5 3.2 2.9 2.9 2.8 3.0 3.3 3.4 2.6
3.3 3.6 3.5 2.7 2.1 1.8 1.4 1.6 1.7 1.1 1.4 1.2 1.0 0.8 0.6 0.9 1.1 1.4 1.9 2.4 2.7 3.1 2.5 2.9 3.4 4.0 3.0 4.3 5.1 5.3 5.2 5.4 5.2 4.6 3.9 3.1 2.8 2.4 3.0 3.5 4.2 3.5 4.2
4.0 3.9 3.6 3.1 3.1 2.7 2.0 1.8 1.9 1.8 2.0 1.9 1.6 1.0 0.5 0.7 1.0 1.4 1.6 1.6 1.9 2.6 3.1 3.3 4.0 4.3 4.4 4.2 4.2 4.6 5.5 6.6 5.8 5.5 4.9 3.6 3.9 3.9 3.7 3.7 4.7 4.0 4.2
3.7 3.8 3.3 3.4 3.4 2.7 1.7 1.8 2.2 1.7 1.9 2.4 2.2 1.1 1.0 1.3 1.7 1.8 1.4 2.0 2.0 2.4 2.7 2.7 3.8 4.8 5.2 5.2 5.5 5.5 5.4 4.9 4.1 5.1 4.5 2.8 2.8 2.9 2.7 2.9 3.3 2.6 3.6
Wind_Speed
6 4 6 7 8 6 6 6 6 6 7 7 8 7 7 6 5 6 7 6 5 5 3 4 5 2 2 1 1 1 2 2 2 2 2 2 1 4 6 9 11 8 7
5 2 5 3 7 9 8 7 6 7 7 9 6 6 6 6 6 7 7 6 6 5 6 4 6 3 1 2 3 3 1 2 3 3 1 1 5 3 5 7 8 7 7
7 5 5 7 6 10 11 10 9 10 9 7 7 7 7 7 6 6 7 7 6 6 6 6 6 5 4 3 2 3 3 1 2 2 2 1 1 2 4 5 5 7 8
4 3 10 8 6 5 10 11 11 12 11 9 7 7 8 8 7 7 6 6 6 6 6 6 6 6 6 6 5 5 4 3 2 2 1 1 1 3 4 3 3 2 3
7 10 11 10 7 3 5 6 8 8 11 12 10 9 8 8 7 7 6 7 6 6 6 6 6 7 8 8 4 5 6 4 3 3 2 1 1 2 4 4 3 5 2
6 5 6 6 7 6 6 6 6 7 8 10 11 11 11 9 12 12 9 6 7 7 7 6 5 6 5 3 3 4 6 5 4 3 3 3 2 2 2 3 6 3 2
9 9 8 6 6 5 7 3 7 6 8 10 11 11 11 10 13 14 15 7 7 8 8 6 5 4 6 5 8 7 7 5 2 4 4 3 3 4 3 4 5 3 3
7 9 7 6 6 9 7 5 6 5 8 7 9 9 10 9 14 16 16 9 7 8 9 8 8 8 7 8 6 5 5 5 4 3 3 3 1 3 2 1 3 4 4
5 6 5 5 8 10 11 9 9 5 7 10 8 10 9 10 14 16 9 6 7 9 8 8 8 9 13 13 9 7 5 3 6 10 10 8 5 2 4 6 3 4 2
3 4 5 4 1 2 3 5 5 3 4 3 6 5 6 8 7 13 11 7 9 7 6 6 9 11 17 17 11 9 7 5 5 4 4 6 9 9 7 1 4 3 3
5 5 5 4 3 3 2 2 2 2 2 2 2 1 2 4 6 8 10 6 8 7 7 5 5 13 16 17 13 10 8 9 8 6 4 3 3 3 3 2 5 4 3
5 5 5 4 3 3 3 3 3 3 3 2 4 3 1 2 6 2 6 7 6 6 8 6 6 10 12 15 13 12 16 12 7 6 5 3 3 3 3 4 9 11 9
3 6 4 5 5 4 4 3 2 3 2 2 1 1 1 2 3 6 6 9 10 5 4 7 14 15 14 11 12 17 15 7 7 5 4 4 4 5 6 4 10 13 14
3 4 4 5 5 4 3 3 2 2 2 1 1 0 1 2 3 3 2 2 2 4 7 6 7 6 5 9 10 10 7 7 6 6 6 4 4 3 3 2 3 2 3
4 3 4 4 5 4 4 2 2 2 2 1 1 0 1 2 2 3 1 1 2 2 8 5 5 3 5 6 7 5 7 6 4 3 5 5 4 3 2 2 3 2 3
5 4 4 3 3 3 3 3 9 6 8 10 8 5 2 4 5 4 7 11 11 8 5 6 5 5 5 5 5 7 6 7 4 4 3 3 4 4 3 2 2 3 4
5 5 4 6 4 3 3 3 3 3 9 12 10 8 10 2 5 10 9 11 10 6 7 6 6 6 5 6 6 4 2 3 4 4 4 4 5 5 5 4 4 4 2
5 7 3 3 4 4 4 4 3 2 2 2 6 6 6 4 4 7 7 5 5 5 3 5 5 4 3 4 4 2 4 4 3 4 4 4 5 5 4 4 4 4 3
5 4 3 3 3 4 3 3 4 3 3 2 1 1 3 3 3 3 6 3 2 4 3 3 3 4 3 3 3 3 4 4 4 4 4 4 4 5 4 5 5 5 5
5 9 6 4 3 4 4 4 4 3 3 2 3 3 2 2 2 3 1 1 2 2 3 3 3 3 4 5 5 4 4 4 4 4 4 5 4 4 5 5 5 4 3
4 5 8 4 3 4 4 5 5 5 5 4 4 4 7 3 3 3 3 3 4 3 3 4 4 4 4 4 5 4 5 4 5 5 5 4 4 4 4 4 4 3 3
4 4 4 4 4 4 4 4 4 4 4 4 3 3 8 4 3 4 3 4 3 4 3 3 4 5 6 6 6 6 6 6 5 5 5 5 4 4 4 4 4 4 3
5 5 4 3 4 4 4 4 4 4 4 4 4 4 4 4 4 4 4 4 4 4 4 5 6 5 5 8 11 8 7 6 6 5 5 5 5 4 4 4 4 4 4
5 6 5 5 4 4 4 5 5 6 5 5 5 4 5 5 6 5 4 4 4 4 4 5 5 7 5 8 12 13 13 12 13 13 9 5 5 5 4 4 4 6 5
5 5 6 6 6 7 6 5 5 5 5 5 5 5 4 5 5 5 5 5 4 4 5 5 7 9 11 12 11 13 14 17 18 19 16 8 7 7 5 4 4 3 4
4 5 5 6 8 6 6 6 6 6 7 7 6 5 6 7 7 6 5 5 5 5 7 6 10 14 13 15 18 18 17 16 17 20 18 9 6 5 4 5 6 4 5
Wind_Direction
63 342 234 218 196 200 211 222 204 210 203 208 207 193 199 219 237 213 221 201 208 207 227 221 261 229 253 277 83 121 152 150 144 298 260 235 181 200 176 142 136 128 112
173 161 299 244 239 200 208 213 181 207 208 211 211 206 211 221 234 205 212 199 211 222 238 238 244 232 64 185 146 119 99 169 140 189 272 233 211 145 143 130 130 123 104
155 152 246 274 216 232 209 208 181 203 222 223 200 208 221 230 227 226 206 208 211 217 220 226 240 220 224 192 187 159 152 154 110 146 209 295 68 120 121 97 104 100 97
187 180 226 234 208 231 241 211 198 197 205 218 222 215 217 229 224 218 219 217 211 225 225 219 234 213 217 204 194 181 172 159 156 143 156 167 121 81 107 132 123 113 138
187 212 220 240 219 208 255 232 221 190 207 211 216 224 228 224 227 218 217 220 217 229 238 228 228 213 219 206 185 186 170 163 157 160 159 141 186 163 165 168 137 141 108
223 219 218 223 257 233 227 203 189 212 212 209 209 211 215 228 223 212 204 209 215 223 233 227 176 159 164 213 181 238 191 168 183 168 181 180 194 157 140 139 134 140 171
213 222 220 212 250 260 255 235 238 229 213 211 218 213 217 218 217 217 218 215 216 220 221 205 195 183 155 138 121 110 77 64 136 161 172 183 164 199 159 146 164 170 166
215 232 232 243 269 268 249 226 252 253 255 232 236 225 220 222 215 220 223 218 220 227 218 203 193 174 176 156 142 126 96 68 45 78 118 149 124 163 178 179 141 106 75
183 190 213 220 239 253 268 267 261 253 253 240 217 218 219 231 214 220 208 217 220 224 221 209 192 179 174 164 149 139 129 100 73 95 103 99 85 149 151 118 129 121 102
136 146 127 114 106 141 226 222 226 225 243 264 253 236 241 249 244 225 197 211 223 219 197 195 217 184 167 167 158 157 154 177 153 122 91 77 82 77 172 255 152 140 129
122 106 87 66 47 44 357 15 319 280 226 254 278 141 200 248 243 221 230 239 222 208 192 192 204 176 167 169 161 170 179 157 163 137 126 118 105 100 90 104 184 154 141
119 114 113 86 39 16 53 26 26 5 350 222 181 186 250 9 18 260 218 211 268 221 208 182 181 187 178 165 170 169 156 153 152 151 146 151 142 111 80 70 74 85 80
152 137 137 107 77 34 29 24 18 11 23 40 144 168 28 351 336 348 298 249 241 249 241 192 169 179 182 171 177 163 157 154 154 153 154 148 158 142 125 86 73 80 77
22 146 114 88 81 51 38 18 22 12 38 70 95 93 290 317 323 327 317 307 212 156 134 140 169 160 196 154 147 149 151 153 155 148 147 135 119 120 112 111 104 82 76
120 138 127 114 103 97 78 31 12 64 315 50 73 59 245 289 290 298 160 75 83 112 120 112 118 124 135 138 123 106 98 98 94 94 121 119 123 122 126 153 118 91 105
147 134 154 132 134 133 115 88 55 36 32 33 35 37 4 36 75 78 97 101 94 91 80 105 97 100 93 80 57 99 101 109 109 121 127 129 131 126 130 109 117 128 125
146 140 148 150 164 161 136 124 110 38 65 48 29 34 29 13 108 104 74 73 49 72 96 90 83 91 102 113 111 96 101 129 136 148 145 147 133 124 119 110 102 112 107
141 147 145 161 168 166 167 151 149 150 116 14 26 18 43 70 26 13 79 62 69 38 75 118 120 113 102 99 102 144 160 176 131 118 118 137 139 134 128 136 149 136 142
152 151 159 174 172 170 168 163 161 154 153 159 145 351 47 85 122 6 348 84 92 106 102 88 114 128 142 141 163 171 160 138 127 126 135 148 146 127 127 140 150 146 131
167 157 158 166 168 169 173 170 151 162 169 202 206 205 171 196 203 212 247 115 126 139 153 169 195 184 178 179 174 157 126 127 134 127 137 149 152 146 147 151 159 157 165
161 165 161 160 180 181 178 177 170 183 196 196 213 213 197 204 210 220 225 206 200 181 211 225 201 192 179 170 150 151 154 158 160 151 155 157 158 154 166 175 166 182 156
158 160 166 174 188 190 187 185 188 186 193 216 216 202 202 212 229 215 223 238 213 221 230 224 203 189 175 168 163 163 165 169 172 164 167 173 165 164 165 181 186 195 198
161 166 177 191 193 189 193 189 190 196 205 209 206 197 187 218 230 234 231 229 246 247 230 185 179 185 169 158 168 167 167 180 185 176 176 181 187 192 182 181 194 184 195
175 173 187 197 190 203 199 202 198 197 200 205 201 196 198 209 216 227 234 243 254 256 188 165 178 170 159 173 183 188 190 193 192 197 199 197 204 196 197 214 220 228 223
180 178 190 207 198 205 204 209 214 197 200 204 203 198 200 213 216 226 235 234 250 205 203 175 187 187 182 184 189 204 211 222 221 218 200 191 198 191 185 191 206 198 197
211 215 217 227 217 197 192 206 211 193 200 210 209 200 198 209 219 219 222 223 222 201 198 185 202 211 201 199 200 198 200 197 179 179 171 163 165 187 195 213 223 218 222